TimeMST,TemperatureF,Dew PointF,Humidity,Sea Level PressureIn,VisibilityMPH,Wind Direction,Wind SpeedMPH,Gust SpeedMPH,PrecipitationIn,Events,Conditions,WindDirDegrees,DateUTC
12:33 AM,30.2,28.4,93,29.47,10.0,WSW,12.7,-,0.00,,Overcast,240,2011-11-15 07:33:00
12:56 AM,30.0,28.0,92,29.52,10.0,WSW,13.8,-,0.00,,Mostly Cloudy,240,2011-11-15 07:56:00
1:10 AM,30.2,28.4,93,29.47,10.0,West,15.0,-,N/A,,Mostly Cloudy,260,2011-11-15 08:10:00
1:30 AM,30.2,28.4,93,29.46,10.0,West,16.1,25.3,N/A,,Mostly Cloudy,260,2011-11-15 08:30:00
1:54 AM,30.2,28.4,93,29.49,10.0,West,20.7,-,N/A,,Mostly Cloudy,260,2011-11-15 08:54:00
1:56 AM,30.9,28.0,89,29.54,10.0,West,20.7,-,N/A,,Mostly Cloudy,260,2011-11-15 08:56:00
2:26 AM,30.2,26.6,86,29.50,10.0,West,20.7,27.6,N/A,,Scattered Clouds,270,2011-11-15 09:26:00
2:56 AM,30.9,25.0,79,29.57,10.0,WNW,27.6,36.8,N/A,,Mostly Cloudy,290,2011-11-15 09:56:00
3:56 AM,28.0,23.0,81,29.62,10.0,WNW,18.4,26.5,N/A,,Mostly Cloudy,290,2011-11-15 10:56:00
4:38 AM,28.4,21.2,74,29.59,10.0,WNW,20.7,-,N/A,,Mostly Cloudy,290,2011-11-15 11:38:00
4:56 AM,28.0,21.0,75,29.67,10.0,WNW,25.3,32.2,N/A,,Overcast,290,2011-11-15 11:56:00
5:56 AM,27.0,21.0,78,29.71,10.0,WNW,18.4,28.8,N/A,,Overcast,290,2011-11-15 12:56:00
6:08 AM,26.6,21.2,80,29.64,10.0,WNW,21.9,28.8,N/A,,Overcast,290,2011-11-15 13:08:00
6:44 AM,26.6,19.4,74,29.66,9.0,WNW,21.9,31.1,0.00,Snow,Light Snow,290,2011-11-15 13:44:00
7:03 AM,26.6,19.4,74,29.67,7.0,WNW,21.9,28.8,0.00,Snow,Light Snow,290,2011-11-15 14:03:00
7:56 AM,27.0,19.9,75,29.78,10.0,WNW,27.6,32.2,0.00,,Mostly Cloudy,290,2011-11-15 14:56:00
8:56 AM,27.0,19.0,72,29.80,10.0,WNW,26.5,34.5,N/A,,Mostly Cloudy,300,2011-11-15 15:56:00
9:04 AM,26.6,19.4,74,29.72,10.0,WNW,28.8,38.0,N/A,,Scattered Clouds,300,2011-11-15 16:04:00
9:56 AM,28.0,17.1,63,29.82,10.0,WNW,29.9,38.0,N/A,,Partly Cloudy,300,2011-11-15 16:56:00
10:23 AM,28.4,17.6,64,29.76,10.0,WNW,31.1,39.1,N/A,,Mostly Cloudy,290,2011-11-15 17:23:00
10:56 AM,28.0,16.0,61,29.85,10.0,NW,27.6,35.7,N/A,,Overcast,310,2011-11-15 17:56:00
11:19 AM,28.4,15.8,59,29.77,10.0,WNW,23.0,28.8,N/A,,Overcast,300,2011-11-15 18:19:00
11:31 AM,28.4,17.6,64,29.77,10.0,WNW,24.2,31.1,N/A,,Overcast,290,2011-11-15 18:31:00
11:51 AM,30.2,15.8,55,29.76,10.0,WNW,28.8,34.5,N/A,,Mostly Cloudy,300,2011-11-15 18:51:00
11:56 AM,30.0,16.0,56,29.84,10.0,WNW,27.6,34.5,N/A,,Mostly Cloudy,290,2011-11-15 18:56:00
12:56 PM,28.9,16.0,58,29.87,10.0,WNW,21.9,28.8,N/A,,Overcast,300,2011-11-15 19:56:00
1:56 PM,28.9,16.0,58,29.88,10.0,West,25.3,32.2,0.00,,Overcast,280,2011-11-15 20:56:00
2:56 PM,28.9,12.9,51,29.90,10.0,WNW,21.9,29.9,N/A,,Clear,300,2011-11-15 21:56:00
3:56 PM,27.0,10.9,51,29.93,10.0,WNW,20.7,29.9,N/A,,Clear,300,2011-11-15 22:56:00
4:56 PM,21.9,10.9,63,29.97,10.0,WNW,10.4,-,N/A,,Partly Cloudy,290,2011-11-15 23:56:00
5:56 PM,19.0,10.9,71,29.99,10.0,West,6.9,-,N/A,,Partly Cloudy,280,2011-11-16 00:56:00
6:56 PM,15.1,10.0,80,30.01,10.0,West,8.1,-,N/A,,Clear,270,2011-11-16 01:56:00
7:56 PM,24.1,16.0,71,30.00,10.0,West,11.5,-,N/A,,Overcast,270,2011-11-16 02:56:00
8:56 PM,16.0,10.9,81,30.02,10.0,WSW,9.2,-,0.00,,Clear,250,2011-11-16 03:56:00
9:56 PM,18.0,12.0,78,30.01,10.0,WSW,13.8,-,N/A,,Clear,240,2011-11-16 04:56:00
10:56 PM,16.0,10.9,81,30.03,10.0,West,10.4,-,N/A,,Clear,260,2011-11-16 05:56:00
11:56 PM,15.1,10.0,80,30.06,10.0,West,11.5,-,N/A,,Clear,280,2011-11-16 06:56:00